Weather History for Summerville, SC

Change the Weather History Date:

Thursday, September 26, 2013

  Actual Average (KCHS) Record (KCHS)
Temperature  
Mean Temperature 68 °F 73 °F  
Max Temperature 75 °F 82 °F 93 °F (1961)
Min Temperature 60 °F 64 °F 49 °F (1940)
Degree Days  
Heating Degree Days 0 0  
Month to date heating degree days 0  
Since 1 July heating degree days 0  
Cooling Degree Days 2 8  
Month to date cooling degree days 302  
Year to date cooling degree days 2107  
Growing Degree Days 18 (Base 50)    
Moisture  
Dew Point 64 °F    
Average Humidity 93    
Maximum Humidity 100    
Minimum Humidity 69    
Precipitation  
Precipitation 0.00 in 0.17 in 2.61 in (1953)
Month to date precipitation 5.41  
Year to date precipitation 41.05  
Sea Level Pressure  
Sea Level Pressure 29.89 in    
Wind  
Wind Speed 6 mph (North)    
Max Wind Speed 10 mph    
Max Gust Speed 16 mph    
Visibility 9 miles    
Events Rain    
T = Trace of Precipitation, MM = Missing Value Source: NWS Daily Summary

Daily Weather History Graph

Daily Weather History Graph

Search for Another Location

Airport:

Trip Planner

Search our weather history database for the weather conditions in past years. The results will help you decide how hot, cold, wet, or windy it might be!

Date:

Astronomy

Sep. 26, 2013 Rise Set
Actual Time 7:12 AM EDT 7:12 PM EDT
Civil Twilight 6:47 AM EDT 7:36 PM EDT
Nautical Twilight 6:18 AM EDT 8:05 PM EDT
Astronomical Twilight 5:49 AM EDT 8:34 PM EDT
Moon No Moon Rise 1:47 PM EDT (9/26)
Length of Visible Light 12h 49m
Length of Day
11h 59m
Waning Gibbous, 55% of the Moon is Illuminated
Sep 26
Waning Gibbous
Sep 26
Last Quarter
Oct 4
New
Oct 11
First Quarter
Oct 18
Full

Hourly Weather History & Observations

Time (EDT) Temp. Dew Point Humidity Pressure Visibility Wind Dir Wind Speed Gust Speed Precip Events Conditions
12:15 AM 66.2 °F 66.2 °F 100% 29.86 in 7.0 mi WNW 8.1 mph - N/A   Drizzle
12:35 AM 66.2 °F 66.2 °F 100% 29.85 in 5.0 mi NNW 8.1 mph - N/A Rain Rain
12:55 AM 64.4 °F 64.4 °F 100% 29.84 in 10.0 mi North 10.4 mph 16.1 mph N/A Rain Rain
1:15 AM 64.4 °F 64.4 °F 100% 29.83 in 7.0 mi NNE 6.9 mph - N/A Rain Light Rain
1:35 AM 64.4 °F 64.4 °F 100% 29.83 in 10.0 mi NNE 4.6 mph - N/A   Light Drizzle
1:55 AM 64.4 °F 64.4 °F 100% 29.83 in 7.0 mi North 4.6 mph - N/A   Heavy Drizzle
2:15 AM 64.4 °F 64.4 °F 100% 29.83 in 7.0 mi North 3.5 mph - N/A   Drizzle
2:35 AM 64.4 °F 64.4 °F 100% 29.83 in 5.0 mi NNW 3.5 mph - N/A   Heavy Drizzle
2:55 AM 64.4 °F 64.4 °F 100% 29.83 in 7.0 mi NW 6.9 mph - N/A   Drizzle
3:15 AM 64.4 °F 64.4 °F 100% 29.83 in 5.0 mi North 6.9 mph - N/A   Heavy Drizzle
3:35 AM 64.4 °F 64.4 °F 100% 29.82 in 7.0 mi North 9.2 mph - N/A   Light Drizzle
3:55 AM 64.4 °F 64.4 °F 100% 29.82 in 7.0 mi North 6.9 mph - N/A   Overcast
4:15 AM 64.4 °F 64.4 °F 100% 29.83 in 7.0 mi North 8.1 mph - N/A   Overcast
4:35 AM 64.4 °F 64.4 °F 100% 29.83 in 7.0 mi North 9.2 mph - N/A Rain Rain
4:55 AM 64.4 °F 64.4 °F 100% 29.82 in 7.0 mi NNE 10.4 mph - N/A   Light Drizzle
5:15 AM 64.4 °F 64.4 °F 100% 29.83 in 7.0 mi NNE 8.1 mph - N/A   Overcast
5:35 AM 64.4 °F 64.4 °F 100% 29.83 in 7.0 mi NNE 8.1 mph - N/A   Overcast
5:55 AM 64.4 °F 64.4 °F 100% 29.83 in 10.0 mi NNE 10.4 mph - N/A   Overcast
6:15 AM 64.4 °F 64.4 °F 100% 29.84 in 10.0 mi North 10.4 mph - N/A   Overcast
6:35 AM 64.4 °F 64.4 °F 100% 29.85 in 10.0 mi NNE 8.1 mph - N/A   Overcast
6:55 AM 62.6 °F 62.6 °F 100% 29.86 in 10.0 mi North 6.9 mph - N/A   Drizzle
7:15 AM 62.6 °F 62.6 °F 100% 29.86 in 10.0 mi North 5.8 mph - N/A Rain Light Rain
7:35 AM 62.6 °F 62.6 °F 100% 29.87 in 10.0 mi North 4.6 mph - N/A   Overcast
7:55 AM 62.6 °F 62.6 °F 100% 29.87 in 7.0 mi North 4.6 mph - N/A Rain Light Rain
8:15 AM 62.6 °F 62.6 °F 100% 29.88 in 5.0 mi North 4.6 mph - N/A   Drizzle
8:35 AM 62.6 °F 62.6 °F 100% 29.89 in 4.0 mi North 4.6 mph - N/A   Drizzle
8:55 AM 62.6 °F 62.6 °F 100% 29.89 in 7.0 mi North 5.8 mph - N/A   Overcast
9:15 AM 62.6 °F 62.6 °F 100% 29.90 in 7.0 mi North 5.8 mph - N/A   Overcast
9:35 AM 64.4 °F 64.4 °F 100% 29.90 in 10.0 mi NNE 6.9 mph - N/A   Overcast
9:55 AM 64.4 °F 64.4 °F 100% 29.89 in 10.0 mi North 6.9 mph - N/A   Overcast
10:15 AM 64.4 °F 64.4 °F 100% 29.90 in 10.0 mi North 4.6 mph - N/A   Overcast
10:35 AM 66.2 °F 64.4 °F 94% 29.91 in 10.0 mi North 8.1 mph - N/A   Overcast
10:55 AM 68.0 °F 64.4 °F 88% 29.91 in 10.0 mi North 4.6 mph - N/A   Overcast
11:15 AM 68.0 °F 64.4 °F 88% 29.91 in 10.0 mi North 6.9 mph - N/A   Overcast
11:35 AM 68.0 °F 64.4 °F 88% 29.91 in 10.0 mi North 8.1 mph - N/A   Overcast
11:55 AM 68.0 °F 64.4 °F 88% 29.92 in 10.0 mi North 10.4 mph - N/A   Overcast
12:15 PM 66.2 °F 66.2 °F 100% 29.91 in 5.0 mi North 4.6 mph - N/A   Light Drizzle
12:35 PM 68.0 °F 66.2 °F 94% 29.91 in 10.0 mi North 5.8 mph - N/A   Overcast
12:55 PM 71.6 °F 66.2 °F 83% 29.91 in 10.0 mi North 4.6 mph - N/A   Overcast
1:15 PM 69.8 °F 64.4 °F 83% 29.91 in 10.0 mi NNE 6.9 mph - N/A   Overcast
1:35 PM 71.6 °F 66.2 °F 83% 29.90 in 10.0 mi North 8.1 mph - N/A   Overcast
1:55 PM 71.6 °F 64.4 °F 78% 29.90 in 10.0 mi North 8.1 mph - N/A   Overcast
2:15 PM 71.6 °F 64.4 °F 78% 29.89 in 10.0 mi NNW 8.1 mph - N/A   Overcast
2:35 PM 71.6 °F 64.4 °F 78% 29.89 in 10.0 mi North 8.1 mph - N/A   Overcast
2:55 PM 71.6 °F 64.4 °F 78% 29.90 in 10.0 mi North 8.1 mph - N/A   Overcast
3:15 PM 71.6 °F 64.4 °F 78% 29.89 in 10.0 mi North 8.1 mph - N/A   Overcast
3:35 PM 73.4 °F 64.4 °F 73% 29.89 in 10.0 mi North 9.2 mph - N/A   Overcast
3:55 PM 73.4 °F 64.4 °F 73% 29.89 in 10.0 mi North 5.8 mph - N/A   Overcast
4:15 PM 73.4 °F 64.4 °F 73% 29.89 in 10.0 mi North 5.8 mph - N/A   Overcast
4:35 PM 73.4 °F 64.4 °F 73% 29.89 in 10.0 mi North 4.6 mph - N/A   Overcast
4:55 PM 73.4 °F 64.4 °F 73% 29.89 in 10.0 mi North 5.8 mph - N/A   Overcast
5:15 PM 75.2 °F 64.4 °F 69% 29.90 in 10.0 mi North 5.8 mph - N/A   Overcast
5:35 PM 73.4 °F 62.6 °F 69% 29.91 in 10.0 mi North 6.9 mph - N/A   Overcast
5:55 PM 73.4 °F 64.4 °F 73% 29.91 in 10.0 mi Calm Calm - N/A   Scattered Clouds
6:15 PM 73.4 °F 64.4 °F 73% 29.91 in 10.0 mi North 4.6 mph - N/A   Mostly Cloudy
6:35 PM 73.4 °F 64.4 °F 73% 29.92 in 10.0 mi North 3.5 mph - N/A   Scattered Clouds
6:55 PM 71.6 °F 64.4 °F 78% 29.92 in 10.0 mi Calm Calm - N/A   Clear
7:15 PM 68.0 °F 66.2 °F 94% 29.92 in 10.0 mi Calm Calm - N/A   Clear
7:35 PM 68.0 °F 66.2 °F 94% 29.92 in 10.0 mi Calm Calm - N/A   Clear
7:55 PM 66.2 °F 66.2 °F 100% 29.93 in 10.0 mi Calm Calm - N/A   Clear
8:15 PM 64.4 °F 64.4 °F 100% 29.93 in 10.0 mi Calm Calm - N/A   Clear
8:35 PM 64.4 °F 64.4 °F 100% 29.94 in 7.0 mi Calm Calm - N/A   Clear
8:55 PM 64.4 °F 64.4 °F 100% 29.94 in 7.0 mi Calm Calm - N/A   Clear
9:15 PM 62.6 °F 62.6 °F 100% 29.95 in 7.0 mi Calm Calm - N/A   Clear
9:35 PM 62.6 °F 62.6 °F 100% 29.95 in 7.0 mi Calm Calm - N/A   Clear
9:55 PM 62.6 °F 62.6 °F 100% 29.95 in 7.0 mi Calm Calm - N/A   Clear
10:15 PM 62.6 °F 62.6 °F 100% 29.96 in 7.0 mi Calm Calm - N/A   Clear
10:35 PM 60.8 °F 60.8 °F 100% 29.96 in 10.0 mi Calm Calm - N/A   Clear
10:55 PM 60.8 °F 60.8 °F 100% 29.96 in 7.0 mi Calm Calm - N/A   Clear
11:15 PM 60.8 °F 60.8 °F 100% 29.97 in 10.0 mi Calm Calm - N/A   Clear
11:35 PM 60.8 °F 60.8 °F 100% 29.97 in 10.0 mi Calm Calm - N/A   Clear
11:55 PM 60.8 °F 60.8 °F 100% 29.97 in 7.0 mi Calm Calm - N/A   Clear